Content
SEND FEEDBACK

Daily
Averages
Monthly
Summary
United States of America

DENVER CITY, TEXAS


Home > North America > United States > Texas
Elevation: 3590 feet     Latitude: 32 58N     Longitude: 102 50W

WEATHER
 
SELECT A DAY
Number of Records: 255,291;   Date Range: 4/19/04 - 12/21/14
 
SHARE

PRINT THIS DATA

[ ← Previous Day ]
WEATHER ALMANAC - JANUARY 23, 2013
[ Next Day → ]
[ °C ]   °F
Weather ElementAverageHighLow
Temperature51.2 °F74.5 °F (4:15 pm)30.4 °F (6:55 am)
Dewpoint23.5 °F37.2 °F (2:55 am)13.5 °F (1:15 pm)
Humidity47.3 %95 % (3:55 am)10 % (2:55 pm)
Barometer30.21 in30.29 in (10:35 am)30.17 in (3:55 pm)
Wind Speed5.6 mph17.3 mph (3:15 pm)
Wind Gust21.9 mph (3:35 pm)
Weather ElementAverage
Visibility9.1 mi
Wind DirectionSSE (152.8 °)

Weather ElementTotal
Precipitation---
Heating Degree Days12.6 (Base 65)
Growing Degree Days2.5 (Base 50)
Averaged from 71 records on January 23, 2013
WEATHER CONDITIONS BREAKOUT
WIND DIRECTION BREAKOUT
WEATHER BY HOUR - JANUARY 23, 2013
[ °C ]   °F
Local TimeTemperatureDewpointHumidityBarometerVisibilityWind DirectionWind SpeedGust SpeedPrecipitationEventsConditions
12:35 AM41.9 °F31.5 °F66 %30.20 in10.0 miCalmClear
12:55 AM41.5 °F32.2 °F69 %30.19 in10.0 miCalmClear
1:15 AM41.2 °F33.4 °F74 %30.19 in10.0 miCalmClear
1:35 AM41.0 °F35.1 °F79 %30.18 in10.0 miCalmClear
1:55 AM40.6 °F36.3 °F85 %30.18 in10.0 miCalmClear
2:15 AM40.3 °F36.7 °F87 %30.18 in10.0 miWSW (250°)6.9 mphClear
2:35 AM39.7 °F37.0 °F90 %30.18 in7.0 miWSW (250°)6.9 mphClear
2:55 AM39.2 °F37.2 °F93 %30.19 in7.0 miWest (280°)4.6 mphClear
3:15 AM36.9 °F35.1 °F93 %30.20 in5.0 miCalmClear
3:35 AM34.9 °F33.4 °F94 %30.20 in5.0 miCalmClear
3:55 AM34.9 °F33.6 °F95 %30.21 in5.0 miCalmClear
4:15 AM34.7 °F33.3 °F94 %30.20 in4.0 miCalmClear
4:35 AM33.6 °F32.4 °F95 %30.19 in5.0 miCalmClear
4:55 AM34.3 °F32.9 °F94 %30.19 in7.0 miCalmClear
5:15 AM33.8 °F32.4 °F94 %30.20 in7.0 miCalmClear
5:35 AM32.9 °F31.6 °F95 %30.20 in7.0 miCalmClear
5:55 AM31.8 °F30.6 °F95 %30.21 in5.0 miNW (320°)6.9 mphClear
6:15 AM31.5 °F30.2 °F95 %30.22 in7.0 miWNW (290°)3.5 mphClear
6:35 AM31.5 °F30.2 °F95 %30.23 in7.0 miNW (310°)4.6 mphClear
6:55 AM30.4 °F28.8 °F94 %30.24 in7.0 miNW (310°)5.8 mphClear
7:15 AM30.6 °F28.9 °F94 %30.24 in10.0 miWNW (290°)5.8 mphClear
7:35 AM31.8 °F29.7 °F92 %30.24 in10.0 miCalmClear
7:55 AM31.8 °F28.8 °F88 %30.24 in10.0 miCalmClear
8:15 AM32.0 °F28.9 °F88 %30.24 in7.0 miWest (260°)4.6 mphClear
8:35 AM33.1 °F31.1 °F92 %30.25 in7.0 miWest (260°)5.8 mphClear
8:55 AM36.5 °F33.6 °F89 %30.26 in10.0 miWest (260°)5.8 mphClear
9:15 AM39.2 °F33.1 °F79 %30.27 in10.0 miWSW (250°)4.6 mphClear
9:35 AM42.4 °F31.8 °F66 %30.27 in10.0 miSW (230°)4.6 mphClear
9:55 AM46.6 °F30.9 °F54 %30.27 in10.0 miCalmClear
10:15 AM50.7 °F27.1 °F40 %30.28 in10.0 miWest (270°)5.8 mphClear
10:35 AM53.6 °F25.5 °F34 %30.29 in10.0 miWest (260°)6.9 mphClear
10:55 AM55.8 °F23.7 °F29 %30.28 in10.0 miWest (270°)6.9 mphClear
11:15 AM58.1 °F22.5 °F25 %30.28 in10.0 miWest (270°)6.9 mphClear
11:35 AM61.0 °F19.8 °F20 %30.29 in10.0 miWest (280°)8.1 mphClear
11:55 AM64.0 °F17.4 °F17 %30.28 in10.0 miWNW (290°)11.5 mphClear
12:15 PM66.7 °F15.3 °F14 %30.28 in10.0 miNW (310°)15.0 mphClear
12:35 PM68.0 °F15.1 °F13 %30.26 in10.0 miWest (260°)11.5 mphClear
12:55 PM68.7 °F15.6 °F13 %30.25 in10.0 miWNW (290°)11.5 mph16.1 mphClear
1:15 PM69.6 °F13.5 °F12 %30.23 in10.0 miWNW (300°)8.1 mphClear
1:35 PM71.1 °F14.0 °F11 %30.22 in10.0 miWSW (250°)12.7 mph16.1 mphClear
1:55 PM72.3 °F14.2 °F11 %30.21 in10.0 miSW (220°)6.9 mphClear
2:15 PM73.2 °F16.2 °F11 %30.20 in10.0 miWSW (240°)11.5 mphClear
2:35 PM73.6 °F16.5 °F11 %30.19 in10.0 miSW (220°)10.4 mph16.1 mphClear
2:55 PM74.3 °F14.7 °F10 %30.18 in10.0 miWSW (240°)15.0 mphClear
3:15 PM74.3 °F13.6 °F10 %30.18 in10.0 miWSW (240°)17.3 mph20.7 mphClear
3:35 PM73.8 °F13.8 °F10 %30.18 in10.0 miWest (260°)17.3 mph21.9 mphClear
3:55 PM74.1 °F15.3 °F11 %30.17 in10.0 miSW (230°)16.1 mph19.6 mphClear
4:15 PM74.5 °F14.9 °F10 %30.17 in10.0 miWSW (250°)16.1 mph20.7 mphClear
4:35 PM74.5 °F15.6 °F11 %30.17 in10.0 miWSW (240°)13.8 mph17.3 mphClear
4:55 PM73.8 °F16.2 °F11 %30.17 in10.0 miSW (220°)13.8 mphClear
5:15 PM72.3 °F16.2 °F12 %30.17 in10.0 miSW (220°)15.0 mph18.4 mphClear
5:35 PM70.5 °F17.2 °F13 %30.18 in10.0 miSW (220°)11.5 mphClear
5:55 PM68.5 °F16.2 °F13 %30.18 in10.0 miSW (220°)9.2 mphClear
6:15 PM64.9 °F15.1 °F15 %30.18 in10.0 miSW (220°)6.9 mphClear
6:35 PM61.5 °F14.5 °F16 %30.18 in10.0 miCalmClear
6:55 PM59.0 °F15.4 °F18 %30.20 in10.0 miCalmClear
7:15 PM57.2 °F16.9 °F21 %30.20 in10.0 miCalmClear
7:35 PM55.8 °F17.1 °F22 %30.19 in10.0 miCalmClear
7:55 PM54.1 °F17.1 °F23 %30.19 in10.0 miCalmClear
8:15 PM53.6 °F16.7 °F23 %30.20 in10.0 miSW (230°)6.9 mphClear
8:35 PM51.8 °F17.1 °F25 %30.19 in10.0 miCalmClear
8:55 PM50.2 °F17.1 °F27 %30.20 in10.0 miCalmClear
9:15 PM49.8 °F17.1 °F27 %30.20 in10.0 miWSW (250°)9.2 mphClear
9:35 PM49.6 °F17.8 °F28 %30.20 in10.0 miCalmClear
9:55 PM48.2 °F18.5 °F31 %30.20 in10.0 miCalmClear
10:15 PM47.3 °F18.9 °F32 %30.20 in10.0 miCalmClear
10:35 PM47.5 °F19.2 °F33 %30.20 in10.0 miCalmClear
10:55 PM47.3 °F19.2 °F33 %30.20 in10.0 miCalmClear
11:15 PM46.8 °F19.6 °F34 %30.20 in10.0 miCalmClear
11:35 PM49.1 °F20.5 °F32 %30.21 in10.0 miWest (260°)10.4 mphClear
11:55 PM51.4 °F20.8 °F30 %30.20 in10.0 miWest (260°)12.7 mphClear
Hourly data recorded from KGNC, located miles away from Denver City, Texas







STORIES FROM OUR PARTNERS